Погода в Сан-Хуан-де-лос-Моррос

Венесуэла     9°54′57″N   67°20′46″W
темп.,
°C
ветер,
м/с
пор.,
м/с
влажн.,
%
обл.,
%
осадки,
мм/ч
давл.,
гПа
погр.,
м
16 октября, сб
сб1623:00+21ссв229022 0.0 101223
02:00+21ссв22918 0.0 101025
05:00+20с229413 0.8 101127
08:00+23с11878 2.8 101344
11:00+27юв236843 3.1 10141007
14:00+30юв335341 3.6 10101679
17:00+26в12846 2.2 101046
20:00+21ссв229255 3.1 101228
17 октября, вс
вс1723:00+21ссв229124 0.0 101327
02:00+21с228959 0.1 101230
05:00+21ссв22895 0.0 101224
08:00+25ссв117427 0.0 1014123
11:00+30юв344873 0.0 10131729
14:00+32ююв344499 0.0 10102336
17:00+27ююз136942 0.1 1010341
20:00+22ссв218572 1.1 101213
18 октября, пн
пн1823:00+21с229124 1.5 101323
02:00+20с2293100 2.6 101218
05:00+20ссв22937 0.1 101222
08:00+23всв11835 0.1 1014117
11:00+29ююв2356100 0.0 10131477
14:00+28в2262100 2.4 10101096
17:00+25св118091 2.2 101012
20:00+20ссв229412 6.8 101225
19 октября, вт
вт1923:00+20с229360 0.6 101333
02:00+20с229414 0.6 101134
05:00+19с22945 0.0 101239
08:00+23с12845 0.0 1014141
11:00+30юв125347 0.0 10131520
14:00+31вюв124821 0.8 10102017
17:00+29з116267 0.4 100988
20:00+22с22833 0.7 101231
20 октября, ср
ср2023:00+20с23913 0.0 101452
02:00+19с22925 0.0 101344
05:00+19с229182 0.0 101337
08:00+23с117596 0.0 1015172
11:00+28юв2159100 1.1 10141311
14:00+26ю2177100 3.9 1012776
17:00+25св1186100 3.3 1011276
20:00+21ссв229491 5.1 101326